UNIBRITE

Last updated on Thu Mar 15 2018 21:46:18 GMT+0000 (Greenwich Mean Time)

1 39092U 13009G 18073.79837614 .00000022 00000-0 23247-4 0 9996 2 39092 98.5290 280.3317 0008712 212.9518 147.1125 14.34937210264274
UTC large
Height (km)
Speed (km/s)
/
Latitude / Longitude
Inclination (degrees)
Orbital Period (minutes)
Azimuth
Elevation
Range (km)
Doppler Factor

Next 0 passes for location: London (51.5072 / 0.1276)

Sorry there are no passes over London.